• In Czech Republic
  • List of Countries
  • For 7 days
  • Water Temperature
  • Satellite Maps
  • Weather Map
  • Weather Widgets
  • user-avatar
    Login

    Hourly Weather Northampton

    Today, 17 July, Tuesday

    Time Temperature Precipitation Wind Pressure Humidity
    00:00 +14°C° 0 mm 3 mps 751 mmHg 94%
    01:00 +13°C° 0 mm 3 mps 751 mmHg 94%
    02:00 +13°C° 0 mm 3 mps 751 mmHg 94%
    03:00 +12°C° 0 mm 3 mps 751 mmHg 94%
    04:00 +12°C° 0 mm 3 mps 751 mmHg 92%
    05:00 +13°C° 0 mm 3 mps 751 mmHg 90%
    06:00 +13°C° 0 mm 3 mps 752 mmHg 87%
    07:00 +16°C° 0 mm 3 mps 752 mmHg 80%
    08:00 +18°C° 0 mm 3 mps 752 mmHg 72%
    09:00 +20°C° 0 mm 3 mps 752 mmHg 64%
    10:00 +20°C° 0.1 mm 3 mps 752 mmHg 61%
    11:00 +21°C° 0.1 mm 4 mps 752 mmHg 58%
    12:00 +21°C° 0.1 mm 4 mps 752 mmHg 56%
    13:00 +22°C° 0.1 mm 4 mps 752 mmHg 55%
    14:00 +22°C° 0.1 mm 4 mps 752 mmHg 54%
    15:00 +22°C° 0.1 mm 4 mps 752 mmHg 54%
    16:00 +21°C° 0.1 mm 4 mps 752 mmHg 56%
    17:00 +21°C° 0.1 mm 3 mps 752 mmHg 59%
    18:00 +21°C° 0.1 mm 3 mps 752 mmHg 61%
    19:00 +19°C° 0 mm 3 mps 753 mmHg 66%
    20:00 +18°C° 0 mm 2 mps 753 mmHg 71%
    21:00 +16°C° 0 mm 2 mps 753 mmHg 77%
    22:00 +15°C° 0 mm 2 mps 753 mmHg 80%
    23:00 +15°C° 0 mm 2 mps 754 mmHg 83%

    Tomorrow, 18 July, Wednesday

    Time Temperature Precipitation Wind Pressure Humidity
    00:00 +14°C° 0 mm 2 mps 754 mmHg 86%
    01:00 +13°C° 0 mm 2 mps 754 mmHg 87%
    02:00 +13°C° 0 mm 1 mps 754 mmHg 88%
    03:00 +12°C° 0 mm 1 mps 754 mmHg 89%
    04:00 +13°C° 0 mm 1 mps 754 mmHg 86%
    05:00 +14°C° 0 mm 1 mps 754 mmHg 83%
    06:00 +15°C° 0 mm 1 mps 754 mmHg 80%
    07:00 +18°C° 0 mm 1 mps 754 mmHg 72%
    08:00 +19°C° 0 mm 1 mps 755 mmHg 65%
    09:00 +20°C° 0 mm 2 mps 755 mmHg 57%
    10:00 +21°C° 0.1 mm 2 mps 755 mmHg 55%
    11:00 +21°C° 0.1 mm 2 mps 755 mmHg 53%
    12:00 +23°C° 0.1 mm 2 mps 755 mmHg 51%
    13:00 +23°C° 0 mm 2 mps 755 mmHg 51%
    14:00 +23°C° 0 mm 2 mps 755 mmHg 50%
    15:00 +24°C° 0 mm 2 mps 755 mmHg 50%
    16:00 +23°C° 0 mm 2 mps 755 mmHg 51%
    17:00 +23°C° 0 mm 2 mps 755 mmHg 53%
    18:00 +23°C° 0 mm 1 mps 755 mmHg 54%
    19:00 +22°C° 0 mm 1 mps 755 mmHg 59%
    20:00 +20°C° 0 mm 1 mps 755 mmHg 64%
    21:00 +19°C° 0 mm 1 mps 755 mmHg 70%
    22:00 +18°C° 0 mm 1 mps 755 mmHg 74%
    23:00 +16°C° 0 mm 1 mps 755 mmHg 78%

    Day after tomorrow, 19 July, Thursday

    Time Temperature Precipitation Wind Pressure Humidity
    00:00 +15°C° 0 mm 1 mps 755 mmHg 83%
    01:00 +15°C° 0 mm 1 mps 755 mmHg 84%
    02:00 +14°C° 0 mm 1 mps 755 mmHg 86%
    03:00 +14°C° 0 mm 1 mps 755 mmHg 88%
    04:00 +15°C° 0 mm 1 mps 755 mmHg 85%
    05:00 +16°C° 0 mm 1 mps 756 mmHg 83%
    06:00 +16°C° 0 mm 1 mps 756 mmHg 80%
    07:00 +19°C° 0 mm 1 mps 756 mmHg 73%
    08:00 +21°C° 0 mm 1 mps 756 mmHg 67%
    09:00 +23°C° 0 mm 1 mps 756 mmHg 60%
    10:00 +24°C° 0.1 mm 1 mps 756 mmHg 56%
    11:00 +24°C° 0.1 mm 1 mps 756 mmHg 53%
    12:00 +25°C° 0.1 mm 1 mps 756 mmHg 49%
    13:00 +25°C° 0 mm 1 mps 755 mmHg 49%
    14:00 +25°C° 0 mm 1 mps 755 mmHg 49%
    15:00 +25°C° 0 mm 1 mps 755 mmHg 50%
    16:00 +25°C° 0.1 mm 1 mps 755 mmHg 52%
    17:00 +25°C° 0.1 mm 1 mps 755 mmHg 54%
    18:00 +25°C° 0.1 mm 1 mps 755 mmHg 56%
    19:00 +23°C° 0.1 mm 1 mps 755 mmHg 61%
    20:00 +21°C° 0.1 mm 1 mps 755 mmHg 66%
    21:00 +20°C° 0.1 mm 1 mps 755 mmHg 71%
    22:00 +18°C° 0 mm 2 mps 755 mmHg 73%
    23:00 +17°C° 0 mm 2 mps 755 mmHg 76%

    20 July, Friday

    Time Temperature Precipitation Wind Pressure Humidity
    00:00 +16°C° 0 mm 2 mps 755 mmHg 79%
    01:00 +16°C° 0 mm 2 mps 755 mmHg 79%
    02:00 +15°C° 0 mm 2 mps 755 mmHg 80%
    03:00 +15°C° 0 mm 2 mps 755 mmHg 81%
    04:00 +15°C° 0 mm 2 mps 755 mmHg 79%
    05:00 +15°C° 0 mm 2 mps 755 mmHg 76%
    06:00 +16°C° 0 mm 2 mps 754 mmHg 74%
    07:00 +18°C° 0 mm 2 mps 755 mmHg 68%
    08:00 +19°C° 0 mm 3 mps 755 mmHg 61%
    09:00 +21°C° 0 mm 3 mps 755 mmHg 54%
    10:00 +22°C° 0 mm 3 mps 755 mmHg 52%
    11:00 +24°C° 0 mm 3 mps 754 mmHg 49%
    12:00 +25°C° 0 mm 3 mps 754 mmHg 47%
    13:00 +25°C° 0 mm 3 mps 754 mmHg 46%
    14:00 +25°C° 0 mm 3 mps 754 mmHg 45%
    15:00 +25°C° 0 mm 3 mps 754 mmHg 45%
    16:00 +25°C° 0 mm 3 mps 754 mmHg 47%
    17:00 +24°C° 0 mm 3 mps 754 mmHg 50%
    18:00 +24°C° 0 mm 3 mps 754 mmHg 52%
    19:00 +21°C° 0 mm 3 mps 754 mmHg 57%
    20:00 +19°C° 0 mm 3 mps 754 mmHg 62%
    21:00 +18°C° 0 mm 3 mps 754 mmHg 68%
    22:00 +17°C° 0 mm 3 mps 754 mmHg 70%
    23:00 +16°C° 0 mm 2 mps 754 mmHg 73%

    21 July, Saturday

    Time Temperature Precipitation Wind Pressure Humidity
    00:00 +15°C° 0 mm 2 mps 754 mmHg 76%
    01:00 +15°C° 0 mm 2 mps 754 mmHg 79%
    02:00 +15°C° 0 mm 2 mps 754 mmHg 82%
    03:00 +15°C° 0 mm 2 mps 754 mmHg 85%
    04:00 +15°C° 0 mm 2 mps 754 mmHg 85%
    05:00 +16°C° 0 mm 2 mps 754 mmHg 84%
    06:00 +16°C° 0 mm 3 mps 754 mmHg 84%
    07:00 +17°C° 0.1 mm 3 mps 754 mmHg 81%
    08:00 +18°C° 0.1 mm 3 mps 754 mmHg 77%
    09:00 +19°C° 0.1 mm 3 mps 754 mmHg 74%
    10:00 +20°C° 0.1 mm 4 mps 754 mmHg 69%
    11:00 +21°C° 0.1 mm 4 mps 754 mmHg 64%
    12:00 +22°C° 0.1 mm 4 mps 754 mmHg 59%
    13:00 +22°C° 0.1 mm 4 mps 754 mmHg 59%
    14:00 +22°C° 0.1 mm 5 mps 754 mmHg 59%
    15:00 +22°C° 0.1 mm 5 mps 754 mmHg 59%
    16:00 +22°C° 0 mm 5 mps 754 mmHg 61%
    17:00 +21°C° 0 mm 5 mps 754 mmHg 62%
    18:00 +21°C° 0 mm 5 mps 754 mmHg 64%
    19:00 +19°C° 0 mm 4 mps 754 mmHg 69%
    20:00 +18°C° 0 mm 4 mps 755 mmHg 74%
    21:00 +16°C° 0 mm 3 mps 755 mmHg 80%
    22:00 +16°C° 0 mm 3 mps 755 mmHg 83%
    23:00 +14°C° 0 mm 3 mps 755 mmHg 86%

    22 July, Sunday

    Time Temperature Precipitation Wind Pressure Humidity
    00:00 +13°C° 0 mm 3 mps 755 mmHg 89%
    01:00 +13°C° 0 mm 3 mps 755 mmHg 91%
    02:00 +14°C° 0 mm 2 mps 755 mmHg 92%
    03:00 +13°C° 0 mm 2 mps 755 mmHg 94%
    04:00 +14°C° 0 mm 2 mps 755 mmHg 91%
    05:00 +14°C° 0 mm 3 mps 755 mmHg 88%
    06:00 +16°C° 0 mm 3 mps 755 mmHg 85%
    07:00 +17°C° 0 mm 3 mps 755 mmHg 80%
    08:00 +19°C° 0 mm 3 mps 756 mmHg 75%
    09:00 +20°C° 0 mm 3 mps 756 mmHg 70%
    10:00 +21°C° 0 mm 3 mps 756 mmHg 68%
    11:00 +22°C° 0 mm 3 mps 756 mmHg 65%
    12:00 +24°C° 0 mm 3 mps 755 mmHg 62%
    13:00 +25°C° 0 mm 3 mps 755 mmHg 61%
    14:00 +25°C° 0 mm 3 mps 755 mmHg 60%
    15:00 +26°C° 0 mm 3 mps 755 mmHg 59%
    16:00 +26°C° 0 mm 2 mps 755 mmHg 61%
    17:00 +26°C° 0 mm 2 mps 755 mmHg 63%
    18:00 +25°C° 0 mm 1 mps 755 mmHg 65%
    19:00 +24°C° 0 mm 1 mps 755 mmHg 69%
    20:00 +23°C° 0 mm 1 mps 755 mmHg 73%
    21:00 +20°C° 0 mm 0 mps 755 mmHg 78%
    22:00 +21°C° 0 mm 1 mps 755 mmHg 79%
    23:00 +21°C° 0 mm 1 mps 755 mmHg 81%
    Show more